Soldotna, AK

8:39 AM AKDT on May 22, 2018 (GMT -0800)
Soldotna

Weather History for PASX - May, 2014

Change the Weather History Date:

Sunday, May 25, 2014

  Actual Average Record
Temperature  
Mean Temperature 46 °F -  
Max Temperature 60 °F 54 °F 71 °F (1997)
Min Temperature 32 °F 37 °F 27 °F (1976)
Degree Days  
Heating Degree Days 19    
Moisture  
Dew Point 35 °F    
Average Humidity 60    
Maximum Humidity 87    
Minimum Humidity 36    
Precipitation  
Precipitation 0.00 in - - ()
Sea Level Pressure  
Sea Level Pressure 29.98 in    
Wind  
Wind Speed 6 mph (SW)    
Max Wind Speed 21 mph    
Max Gust Speed 26 mph    
Visibility 8 miles    
Events      
Averages and records for this station are not official NWS values.
T = Trace of Precipitation, MM = Missing Value Source: NWS Daily Summary

Daily Weather History Graph

Daily Weather History Graph

Search for Another Location

Airport or City:

Astronomy

May. 25, 2014 Rise Set
Actual Time 5:00 AM AKDT 11:03 PM AKDT
Civil Twilight 3:42 AM AKDT 12:23 AM AKDT
Nautical Twilight Sun does not set Sun does not set
Astronomical Twilight Sun does not set Sun does not set
Moon 4:13 AM AKDT (5/25) 7:22 PM AKDT (5/25)
Length of Visible Light 20h 41m
Length of Day
18h 02m
Waning Crescent, 9% of the Moon is Illuminated
May 25
Waning Crescent
May 28
New
Jun 5
First Quarter
Jun 12
Full
Jun 19
Last Quarter

Hourly Weather History & Observations

Time (AKDT) Temp. Windchill Dew Point Humidity Pressure Visibility Wind Dir Wind Speed Gust Speed Precip Events Conditions
12:16 AM 44.6 °F 43.1 °F 37.4 °F 76% 30.02 in 10.0 mi South 3.5 mph - N/A   Clear
12:36 AM 41.0 °F 39.0 °F 35.6 °F 81% 30.01 in 10.0 mi SSE 3.5 mph - N/A   Clear
12:56 AM 39.2 °F 35.9 °F 35.6 °F 87% 30.01 in 9.0 mi ESE 4.6 mph - N/A   Clear
1:16 AM 41.0 °F 39.0 °F 35.6 °F 81% 30.02 in 8.0 mi SE 3.5 mph - N/A   Clear
1:36 AM 37.4 °F 34.9 °F 33.8 °F 87% 30.02 in 7.0 mi ESE 3.5 mph - N/A   Clear
1:56 AM 35.6 °F 32.8 °F 30.2 °F 81% 30.02 in 5.0 mi ESE 3.5 mph - N/A   Clear
2:16 AM 37.4 °F - 32.0 °F 81% 30.02 in 5.0 mi Calm Calm - N/A   Clear
2:36 AM 35.6 °F - 30.2 °F 81% 30.02 in 6.0 mi Calm Calm - N/A   Clear
2:56 AM 35.6 °F - 32.0 °F 87% 30.02 in 4.0 mi Calm Calm - N/A   Clear
3:16 AM 33.8 °F - 28.4 °F 81% 30.02 in 4.0 mi Calm Calm - N/A   Clear
3:36 AM 33.8 °F 30.8 °F 28.4 °F 81% 30.02 in 5.0 mi East 3.5 mph - N/A   Clear
3:56 AM 33.8 °F - 30.2 °F 87% 30.02 in 3.0 mi Calm Calm - N/A   Clear
4:16 AM 33.8 °F - 28.4 °F 81% 30.02 in 5.0 mi Calm Calm - N/A   Clear
4:36 AM 32.0 °F - 28.4 °F 87% 30.02 in 4.0 mi Calm Calm - N/A   Clear
4:56 AM 33.8 °F - 28.4 °F 81% 30.02 in 5.0 mi Calm Calm - N/A   Clear
5:16 AM 33.8 °F - 28.4 °F 81% 30.01 in 2.5 mi Calm Calm - N/A   Clear
5:36 AM 32.0 °F - 28.4 °F 87% 30.01 in 2.5 mi Calm Calm - N/A   Clear
5:56 AM 33.8 °F - 30.2 °F 87% 30.01 in 3.0 mi Calm Calm - N/A   Clear
6:16 AM 33.8 °F - 28.4 °F 81% 30.01 in 3.0 mi Calm Calm - N/A   Clear
7:16 AM 35.6 °F 31.7 °F 30.2 °F 81% 30.01 in 2.0 mi NE 4.6 mph - N/A   Clear
7:36 AM 37.4 °F 34.9 °F 32.0 °F 81% 30.00 in 1.5 mi ENE 3.5 mph - N/A   Clear
7:56 AM 39.2 °F 37.0 °F 35.6 °F 87% 30.00 in 1.0 mi ENE 3.5 mph - N/A   Clear
8:16 AM 42.8 °F - 35.6 °F 76% 30.00 in 2.0 mi Calm Calm - N/A   Clear
8:36 AM 48.2 °F - 35.6 °F 62% 30.00 in 5.0 mi SSW 5.8 mph - N/A   Clear
8:56 AM 48.2 °F - 37.4 °F 66% 30.00 in 10.0 mi SW 8.1 mph - N/A   Clear
9:16 AM 50.0 °F - 37.4 °F 62% 29.99 in 10.0 mi SW 13.8 mph 18.4 mph N/A   Clear
9:36 AM 51.8 °F - 37.4 °F 58% 29.99 in 10.0 mi SSW 4.6 mph - N/A   Clear
9:56 AM 51.8 °F - 37.4 °F 58% 29.99 in 10.0 mi SW 10.4 mph 17.3 mph N/A   Clear
10:16 AM 51.8 °F - 39.2 °F 62% 29.99 in 10.0 mi WSW 10.4 mph - N/A   Clear
10:36 AM 51.8 °F - 37.4 °F 58% 29.99 in 10.0 mi SW 9.2 mph 16.1 mph N/A   Clear
10:56 AM 53.6 °F - 39.2 °F 58% 29.99 in 10.0 mi SW 9.2 mph - N/A   Clear
11:16 AM 53.6 °F - 37.4 °F 54% 29.99 in 10.0 mi West 9.2 mph 18.4 mph N/A   Clear
11:36 AM 55.4 °F - 39.2 °F 54% 29.99 in 10.0 mi WSW 9.2 mph - N/A   Clear
11:56 AM 53.6 °F - 41.0 °F 62% 29.98 in 10.0 mi West 6.9 mph - N/A   Clear
12:16 PM 55.4 °F - 41.0 °F 58% 29.98 in 10.0 mi WSW 9.2 mph - N/A   Clear
12:36 PM 57.2 °F - 41.0 °F 55% 29.97 in 10.0 mi WSW 9.2 mph - N/A   Clear
12:56 PM 57.2 °F - 39.2 °F 51% 29.97 in 10.0 mi WSW 10.4 mph 17.3 mph N/A   Clear
1:16 PM 59.0 °F - 39.2 °F 48% 29.97 in 10.0 mi WSW 12.7 mph 18.4 mph N/A   Clear
1:36 PM 59.0 °F - 39.2 °F 48% 29.97 in 10.0 mi SW 12.7 mph 21.9 mph N/A   Clear
1:56 PM 60.8 °F - 39.2 °F 45% 29.96 in 10.0 mi WSW 15.0 mph 18.4 mph N/A   Clear
2:16 PM 60.8 °F - 37.4 °F 42% 29.96 in 10.0 mi SW 11.5 mph 20.7 mph N/A   Clear
2:36 PM 60.8 °F - 37.4 °F 42% 29.96 in 10.0 mi WSW 16.1 mph 20.7 mph N/A   Clear
2:56 PM 60.8 °F - 37.4 °F 42% 29.96 in 10.0 mi SW 15.0 mph 21.9 mph N/A   Clear
3:16 PM 60.8 °F - 33.8 °F 36% 29.96 in 10.0 mi SW 16.1 mph 24.2 mph N/A   Clear
3:36 PM 60.8 °F - 33.8 °F 36% 29.95 in 10.0 mi WSW 15.0 mph 23.0 mph N/A   Clear
3:56 PM - - - N/A% 29.95 in 10.0 mi WSW 17.3 mph 26.5 mph N/A   Clear
4:16 PM - - - N/A% 29.94 in 10.0 mi WSW 20.7 mph 25.3 mph N/A   Clear
4:36 PM 60.8 °F - 33.8 °F 36% 29.95 in 10.0 mi WSW 16.1 mph 25.3 mph N/A   Clear
4:56 PM - - - N/A% 29.94 in 10.0 mi WSW 16.1 mph 26.5 mph N/A   Clear
5:16 PM - - - N/A% 29.94 in 10.0 mi SW 12.7 mph 23.0 mph N/A   Clear
5:36 PM 60.8 °F - 35.6 °F 39% 29.95 in 10.0 mi WSW 13.8 mph 21.9 mph N/A   Clear
5:56 PM 59.0 °F - 33.8 °F 39% 29.94 in 10.0 mi SW 16.1 mph 24.2 mph N/A   Clear
6:16 PM 59.0 °F - 33.8 °F 39% 29.94 in 10.0 mi WSW 18.4 mph 24.2 mph N/A   Clear
6:36 PM 59.0 °F - 33.8 °F 39% 29.94 in 10.0 mi WSW 16.1 mph 20.7 mph N/A   Clear
6:56 PM 59.0 °F - 33.8 °F 39% 29.94 in 10.0 mi WSW 10.4 mph 19.6 mph N/A   Clear
7:16 PM 59.0 °F - 35.6 °F 42% 29.94 in 10.0 mi WSW 12.7 mph - N/A   Clear
7:36 PM 57.2 °F - 35.6 °F 44% 29.94 in 10.0 mi WSW 10.4 mph - N/A   Clear
7:56 PM 57.2 °F - 35.6 °F 44% 29.94 in 10.0 mi SW 10.4 mph 17.3 mph N/A   Clear
8:16 PM 57.2 °F - 35.6 °F 44% 29.94 in 10.0 mi SW 8.1 mph - N/A   Clear
8:36 PM 57.2 °F - 35.6 °F 44% 29.94 in 10.0 mi WSW 9.2 mph - N/A   Clear
8:56 PM 57.2 °F - 35.6 °F 44% 29.94 in 10.0 mi WSW 9.2 mph - N/A   Clear
9:16 PM 57.2 °F - 35.6 °F 44% 29.94 in 10.0 mi WSW 6.9 mph - N/A   Clear
9:36 PM 55.4 °F - 35.6 °F 47% 29.95 in 10.0 mi WSW 8.1 mph - N/A   Clear
9:56 PM 55.4 °F - 37.4 °F 51% 29.95 in 10.0 mi WSW 5.8 mph - N/A   Clear
10:16 PM 55.4 °F - 35.6 °F 47% 29.95 in 10.0 mi WSW 3.5 mph - N/A   Clear
10:36 PM 53.6 °F - 35.6 °F 51% 29.96 in 10.0 mi WSW 5.8 mph - N/A   Clear
10:56 PM 53.6 °F - 33.8 °F 47% 29.96 in 10.0 mi West 4.6 mph - N/A   Clear
11:16 PM 51.8 °F - 33.8 °F 50% 29.97 in 10.0 mi Calm Calm - N/A   Clear
11:36 PM 53.6 °F - 30.2 °F 41% 29.97 in 10.0 mi South 3.5 mph - N/A   Clear
11:56 PM 51.8 °F - 30.2 °F 44% 29.97 in 9.0 mi SSW 3.5 mph - N/A   Clear